User: anonymous   Login
Location: Unspecified
(0.0000°N, 0.0000°E)
Time: 09:05:52
(UTC+00:00)
Language:

LEMUR 2 ANUBHAVTHAKUR - Orbit

View from above orbital plane
View from above orbital plane
View from above satellite
View from above satellite

Ground track
Ground track

The orbit data is extracted from the following two-line orbital elements,

1 41873U 16062E   19345.47661227 +.00000435 +00000-0 +32031-4 0  9990
2 41873 051.6653 097.1544 0002859 210.0292 150.0523 15.23304525169148
Epoch (UTC): 11 December 2019 11:26:19
Eccentricity: 0.0002859
inclination: 51.6653°
perigee height: 494 km
apogee height: 498 km
right ascension of ascending node: 97.1544°
argument of perigee: 210.0292°
revolutions per day: 15.23304525
mean anomaly at epoch: 150.0523°
orbit number at epoch: 16914

The dashed part of the orbit path shows where the satellite is in the earth's shadow,  

DLR